DW3766 Weather Reports


Display with metric or nautical units.
time (UTC)temp
F
wind
direction
speed
MPH
gust
MPH
rain 1hr
in
rain 24hr
in
rain mn
in
humidity
%
barometer
mb
20260510133204 69 273 0.0 2.0 0.00 0.00 0.00 94 1012.5
20260510132730 69 273 0.0 2.0 0.00 0.00 0.00 94 1012.5
20260510132142 68 309 1.0 2.0 0.00 0.00 0.00 94 1012.4
20260510131706 68 22 1.0 4.0 0.00 0.00 0.00 94 1012.4
20260510131139 68 22 1.0 4.0 0.00 0.00 0.00 94 1012.4
20260510130646 67 346 2.0 5.0 0.00 0.00 0.00 94 1012.4
20260510130114 67 327 3.0 6.0 0.00 0.00 0.00 94 1012.3
20260510125645 67 302 2.0 6.0 0.00 0.00 0.00 93 1012.3
20260510125208 66 309 2.0 4.0 0.00 0.00 0.00 94 1012.2
20260510124633 66 329 2.0 4.0 0.00 0.00 0.00 94 1012.1
20260510124147 65 323 1.0 4.0 0.00 0.00 0.00 93 1012.1
20260510123613 65 249 1.0 2.0 0.00 0.00 0.00 93 1012.0
20260510123140 65 248 0.0 2.0 0.00 0.00 0.00 93 1011.9
20260510122649 65 248 1.0 2.0 0.00 0.00 0.00 93 1012.0
20260510122114 64 326 1.0 2.0 0.00 0.00 0.00 92 1011.9
20260510121648 64 326 1.0 2.0 0.00 0.00 0.00 92 1011.9
20260510121153 64 326 0.0 1.0 0.00 0.00 0.00 92 1011.8
20260510120707 64 326 0.0 4.0 0.00 0.00 0.00 92 1011.8
20260510120115 64 326 2.0 3.0 0.00 0.00 0.00 92 1011.6
20260510115646 63 326 2.0 4.0 0.00 0.00 0.00 91 1011.6
20260510115208 64 326 1.0 2.0 0.00 0.00 0.00 91 1011.6
20260510114641 63 326 1.0 2.0 0.00 0.00 0.00 91 1011.7
20260510114207 63 326 0.0 0.0 0.00 0.00 0.00 91 1011.6
20260510113632 64 326 0.0 0.0 0.00 0.00 0.00 91 1011.6
20260510113146 64 326 0.0 0.0 0.00 0.00 0.00 91 1011.6
20260510112612 64 326 0.0 2.0 0.00 0.00 0.00 91 1011.5
20260510112137 64 326 0.0 5.0 0.00 0.00 0.00 90 1011.5
20260510111650 64 326 3.0 5.0 0.00 0.00 0.00 90 1011.5
20260510111216 64 317 1.0 2.0 0.00 0.00 0.00 90 1011.5
20260510110629 64 340 0.0 0.0 0.00 0.00 0.00 90 1011.5
20260510110154 64 340 0.0 4.0 0.00 0.00 0.00 90 1011.6
20260510105701 64 340 0.0 4.0 0.00 0.00 0.00 90 1011.7
20260510105125 64 340 2.0 5.0 0.00 0.00 0.00 90 1011.5
20260510104659 64 324 3.0 5.0 0.00 0.00 0.00 90 1011.4
20260510104202 64 300 4.0 5.0 0.00 0.00 0.00 90 1011.4
20260510103634 64 315 0.0 0.0 0.00 0.00 0.00 90 1011.5
20260510103139 64 315 0.0 0.0 0.00 0.00 0.00 89 1011.4
20260510102712 64 315 0.0 0.0 0.00 0.00 0.00 90 1011.4
20260510102117 64 315 0.0 0.0 0.00 0.00 0.00 90 1011.3
20260510101643 64 315 0.0 0.0 0.00 0.00 0.00 89 1011.3
20260510101156 64 315 0.0 1.0 0.00 0.00 0.00 89 1011.2
20260510100701 64 315 0.0 2.0 0.00 0.00 0.00 89 1011.3
20260510100115 65 315 0.0 2.0 0.00 0.00 0.00 89 1011.4
20260510095641 65 315 0.0 1.0 0.00 0.00 0.00 89 1011.5
20260510095115 65 315 0.0 1.0 0.00 0.00 0.00 89 1011.5
20260510094641 65 315 1.0 1.0 0.00 0.00 0.00 88 1011.5
20260510094149 65 315 0.0 1.0 0.00 0.00 0.00 88 1011.6
20260510093615 65 315 0.0 1.0 0.00 0.00 0.00 88 1011.7
20260510093148 65 315 0.0 2.0 0.00 0.00 0.00 88 1011.6
20260510092613 65 315 0.0 4.0 0.00 0.00 0.00 88 1011.6
20260510092146 65 315 1.0 4.0 0.00 0.00 0.00 88 1011.6
20260510091648 65 298 0.0 4.0 0.00 0.00 0.00 88 1011.6
20260510091114 65 298 1.0 2.0 0.00 0.00 0.00 87 1011.6
20260510090647 65 298 0.0 2.0 0.00 0.00 0.00 87 1011.6
20260510090209 65 298 0.0 2.0 0.00 0.00 0.00 87 1011.6
20260510085643 65 298 0.0 1.0 0.00 0.00 0.00 87 1011.7
20260510085210 65 298 0.0 1.0 0.00 0.00 0.00 87 1011.6
20260510084643 65 299 0.0 1.0 0.00 0.00 0.00 87 1011.5
20260510084149 66 298 0.0 1.0 0.00 0.00 0.00 87 1011.4
20260510083701 66 299 0.0 1.0 0.00 0.00 0.00 87 1011.4
20260510083205 66 299 0.0 0.0 0.00 0.00 0.00 87 1011.4
20260510082630 66 298 0.0 1.0 0.00 0.00 0.00 87 1011.4
20260510082203 66 298 0.0 1.0 0.00 0.00 0.00 86 1011.4
20260510081629 66 298 0.0 1.0 0.00 0.00 0.00 86 1011.3
20260510081201 66 298 0.0 1.0 0.00 0.00 0.00 86 1011.2
20260510080629 66 298 0.0 0.0 0.00 0.00 0.00 86 1011.2
20260510080202 66 298 0.0 0.0 0.00 0.00 0.00 86 1011.2
20260510075728 66 298 0.0 0.0 0.00 0.00 0.00 86 1011.1
20260510075133 66 299 0.0 0.0 0.00 0.00 0.00 86 1011.1
20260510074645 66 298 0.0 0.0 0.00 0.00 0.00 85 1011.2
20260510074206 66 298 0.0 2.0 0.00 0.00 0.00 85 1011.2
20260510073632 66 298 0.0 2.0 0.00 0.00 0.00 85 1011.3
20260510073123 67 299 0.0 2.0 0.00 0.00 0.00 85 1011.3
20260510072648 67 299 0.0 2.0 0.00 0.00 0.00 84 1011.3
20260510072113 67 299 0.0 0.0 0.00 0.00 0.00 84 1011.2
20260510071647 67 298 0.0 0.0 0.00 0.00 0.00 84 1011.3
20260510071116 67 298 0.0 1.0 0.00 0.00 0.00 84 1011.2
20260510070650 67 298 0.0 1.0 0.00 0.00 0.00 84 1011.1
20260510070115 67 299 0.0 1.0 0.00 0.00 0.00 84 1011.2
20260510065620 67 298 0.0 1.0 0.00 0.00 0.00 84 1011.2
20260510065146 67 298 0.0 1.0 0.00 0.00 0.00 84 1011.2
20260510064623 68 299 0.0 2.0 0.00 0.00 0.00 83 1011.2
20260510064128 68 298 1.0 2.0 0.00 0.00 0.00 83 1011.3
20260510063626 68 298 0.0 1.0 0.00 0.00 0.00 83 1011.3
20260510063132 68 298 0.0 1.0 0.00 0.00 0.00 82 1011.2
20260510062630 68 298 0.0 0.0 0.00 0.00 0.00 82 1011.3
20260510062113 68 299 0.0 2.0 0.00 0.00 0.00 82 1011.3
20260510061617 68 299 1.0 2.0 0.00 0.00 0.00 81 1011.3
20260510061132 68 299 0.0 0.0 0.00 0.00 0.00 81 1011.4
20260510060619 68 207 0.0 0.0 0.00 0.00 0.00 81 1011.4
20260510060117 69 207 0.0 0.0 0.00 0.00 0.00 80 1011.4
20260510055622 69 207 0.0 0.0 0.00 0.00 0.00 80 1011.4
20260510055148 69 207 0.0 0.0 0.00 0.00 0.00 79 1011.3
20260510054626 69 207 0.0 0.0 0.00 0.00 0.00 78 1011.4
20260510054131 69 207 0.0 0.0 0.00 0.00 0.00 79 1011.3
20260510053630 69 207 0.0 0.0 0.00 0.00 0.00 79 1011.2
20260510053131 69 207 0.0 0.0 0.00 0.00 0.00 78 1011.1
20260510052629 70 207 0.0 0.0 0.00 0.00 0.00 78 1011.1
20260510052132 70 207 0.0 0.0 0.00 0.00 0.00 78 1011.1
20260510051638 70 207 0.0 0.0 0.00 0.00 0.00 78 1011.0
20260510051116 70 207 0.0 0.0 0.00 0.00 0.00 77 1011.0
20260510050614 70 207 0.0 0.0 0.00 0.00 0.00 77 1011.0
20260510050133 71 207 0.0 0.0 0.00 0.00 0.00 76 1011.1
20260510045706 71 207 0.0 0.0 0.00 0.00 0.00 76 1011.0
20260510045130 71 207 0.0 0.0 0.00 0.00 0.00 75 1010.9
20260510044703 71 207 0.0 0.0 0.00 0.00 0.00 75 1010.9
20260510044129 72 207 0.0 0.0 0.00 0.00 0.00 75 1010.9
20260510043659 72 207 0.0 0.0 0.00 0.00 0.00 75 1010.9
20260510043125 72 207 0.0 0.0 0.00 0.00 0.00 74 1010.9
20260510042638 72 207 0.0 0.0 0.00 0.00 0.00 73 1010.9
20260510042145 72 207 0.0 0.0 0.00 0.00 0.00 72 1010.9
20260510041651 72 207 0.0 0.0 0.00 0.00 0.00 71 1010.8
20260510041223 73 207 0.0 0.0 0.00 0.00 0.00 70 1010.8
20260510040632 73 207 0.0 0.0 0.00 0.00 0.00 70 1010.8
20260510040204 73 207 0.0 0.0 0.00 0.00 0.00 70 1010.7
20260510035629 74 207 0.0 0.0 0.00 0.00 0.00 69 1010.6
20260510035203 74 207 0.0 0.0 0.00 0.00 0.00 69 1010.7
20260510034730 74 207 0.0 0.0 0.00 0.00 0.00 68 1010.5
20260510034139 75 207 0.0 0.0 0.00 0.00 0.00 68 1010.5
20260510033705 75 207 0.0 0.0 0.00 0.00 0.00 67 1010.5
20260510033140 75 207 0.0 0.0 0.00 0.00 0.00 66 1010.4
20260510032644 75 207 0.0 0.0 0.00 0.00 0.00 66 1010.3
20260510032202 76 207 0.0 0.0 0.00 0.00 0.00 64 1010.4
20260510031635 76 207 0.0 0.0 0.00 0.00 0.00 63 1010.2
20260510031201 76 207 0.0 0.0 0.00 0.00 0.00 64 1010.3
20260510030636 77 207 0.0 0.0 0.00 0.00 0.00 63 1010.1
20260510030200 77 207 0.0 0.0 0.00 0.00 0.00 63 1010.1
20260510025634 77 207 0.0 0.0 0.00 0.00 0.00 61 1010.1
20260510025158 78 207 0.0 0.0 0.00 0.00 0.00 60 1010.1
20260510024632 78 207 0.0 0.0 0.00 0.00 0.00 60 1010.0
20260510024157 78 207 0.0 0.0 0.00 0.00 0.00 59 1010.0
20260510023700 79 122 0.0 0.0 0.00 0.00 0.00 58 1009.9
20260510023133 79 123 0.0 1.0 0.00 0.00 0.00 57 1009.9
20260510022659 79 122 0.0 1.0 0.00 0.00 0.00 58 1009.8
20260510022115 79 140 0.0 1.0 0.00 0.00 0.00 57 1009.8
20260510021639 79 140 0.0 4.0 0.00 0.00 0.00 56 1009.8
20260510021211 79 140 0.0 6.0 0.00 0.00 0.00 55 1009.8
20260510020636 80 98 2.0 6.0 0.00 0.00 0.00 55 1009.7
20260510020211 80 91 3.0 6.0 0.00 0.00 0.00 54 1009.6
20260510015636 80 89 3.0 6.0 0.00 0.00 0.00 54 1009.5
20260510015206 80 116 4.0 5.0 0.00 0.00 0.00 54 1009.5
20260510014631 81 115 2.0 4.0 0.00 0.00 0.00 55 1009.3
20260510014136 81 101 1.0 3.0 0.00 0.00 0.00 55 1009.1
20260510013614 82 125 1.0 5.0 0.00 0.00 0.00 55 1009.1
20260510013138 82 123 3.0 7.0 0.00 0.00 0.00 54 1009.0
20260510012146 83 89 2.0 6.0 0.00 0.00 0.00 54 1008.9
20260510011650 83 132 3.0 7.0 0.00 0.00 0.00 54 1008.9
20260510011123 83 117 4.0 7.0 0.00 0.00 0.00 53 1008.8
20260510010649 84 98 2.0 4.0 0.00 0.00 0.00 53 1008.7
20260510010221 84 107 2.0 8.0 0.00 0.00 0.00 52 1008.6
20260510005704 84 121 5.0 8.0 0.00 0.00 0.00 51 1008.6
20260510005137 84 129 3.0 9.0 0.00 0.00 0.00 50 1008.5
20260510004703 85 103 5.0 9.0 0.00 0.00 0.00 50 1008.4
20260510004127 85 120 4.0 8.0 0.00 0.00 0.00 53 1008.3
20260510003700 85 128 2.0 7.0 0.00 0.00 0.00 52 1008.2
20260510003227 85 128 3.0 7.0 0.00 0.00 0.00 52 1008.2
20260510002642 86 125 3.0 6.0 0.00 0.00 0.00 52 1008.2
20260510002207 86 89 3.0 6.0 0.00 0.00 0.00 51 1008.1
20260510001640 86 123 4.0 7.0 0.00 0.00 0.00 50 1008.0
20260510001147 86 133 2.0 6.0 0.00 0.00 0.00 51 1008.1
20260510000652 86 134 3.0 7.0 0.00 0.00 0.00 51 1008.0
20260510000145 86 134 3.0 9.0 0.00 0.00 0.00 50 1007.9
20260509235650 86 112 5.0 9.0 0.00 0.00 0.00 50 1007.9
20260509235201 86 124 6.0 9.0 0.00 0.00 0.00 50 1007.9
20260509234627 86 125 5.0 11.0 0.00 0.00 0.00 52 1007.9
20260509234154 86 128 6.0 12.0 0.00 0.00 0.00 52 1007.9
20260509233703 86 157 6.0 13.0 0.00 0.00 0.00 52 1007.9
20260509233131 87 135 7.0 10.0 0.00 0.00 0.00 51 1007.9
20260509232706 87 159 4.0 13.0 0.00 0.00 0.00 51 1007.8
20260509232131 87 143 8.0 13.0 0.00 0.00 0.00 49 1007.9
20260509231703 87 97 4.0 11.0 0.00 0.00 0.00 50 1007.7
20260509231208 87 111 5.0 11.0 0.00 0.00 0.00 50 1007.7
20260509230640 87 92 5.0 12.0 0.00 0.00 0.00 50 1007.8
20260509230203 88 95 7.0 12.0 0.00 0.00 0.00 50 1007.7
20260509225633 88 136 7.0 13.0 0.00 0.00 0.00 48 1007.7
20260509225159 89 98 9.0 13.0 0.00 0.00 0.00 46 1007.7
20260509224632 92 80 8.0 12.0 0.00 0.00 0.00 41 1007.8
20260509224154 92 262 1.0 7.0 0.00 0.00 0.00 38 1007.7
20260509223622 92 214 3.0 7.0 0.00 0.00 0.00 43 1007.6
20260509223156 92 186 4.0 8.0 0.00 0.00 0.00 39 1007.6
20260509222722 92 177 4.0 8.0 0.00 0.00 0.00 37 1007.6
20260509222134 92 204 2.0 6.0 0.00 0.00 0.00 37 1007.6
20260509221658 92 220 2.0 6.0 0.00 0.00 0.00 39 1007.6
20260509221201 91 242 3.0 8.0 0.00 0.00 0.00 42 1007.7
20260509220625 91 219 4.0 9.0 0.00 0.00 0.00 40 1007.7
20260509220157 91 205 5.0 9.0 0.00 0.00 0.00 41 1007.7
20260509215701 91 265 1.0 6.0 0.00 0.00 0.00 40 1007.8
20260509215133 91 117 3.0 5.0 0.00 0.00 0.00 39 1007.8
20260509214700 91 229 2.0 5.0 0.00 0.00 0.00 42 1007.8
20260509214136 90 276 1.0 4.0 0.00 0.00 0.00 43 1007.9
20260509213701 90 267 2.0 5.0 0.00 0.00 0.00 43 1007.9
20260509213126 90 242 3.0 8.0 0.00 0.00 0.00 43 1007.9
20260509212659 90 279 2.0 8.0 0.00 0.00 0.00 43 1008.0
20260509212125 90 217 4.0 8.0 0.00 0.00 0.00 44 1007.9
20260509211637 90 196 4.0 7.0 0.00 0.00 0.00 42 1007.9
20260509211203 90 166 2.0 5.0 0.00 0.00 0.00 44 1007.9
20260509210615 90 169 1.0 3.0 0.00 0.00 0.00 42 1008.0
20260509210140 90 157 1.0 7.0 0.00 0.00 0.00 40 1008.1
20260509205616 90 245 1.0 7.0 0.00 0.00 0.00 40 1008.2
20260509205141 90 285 2.0 6.0 0.00 0.00 0.00 42 1008.3
20260509204613 91 169 4.0 7.0 0.00 0.00 0.00 42 1008.4
20260509204116 90 238 4.0 7.0 0.00 0.00 0.00 43 1008.5
20260509203650 90 188 3.0 7.0 0.00 0.00 0.00 46 1008.5
20260509203115 90 19 1.0 7.0 0.00 0.00 0.00 45 1008.5
20260509202640 90 274 4.0 7.0 0.00 0.00 0.00 42 1008.7
20260509202215 90 253 1.0 8.0 0.00 0.00 0.00 44 1008.7
20260509201619 90 201 4.0 8.0 0.00 0.00 0.00 47 1008.8
20260509201151 90 169 1.0 7.0 0.00 0.00 0.00 46 1008.9
20260509200614 90 248 4.0 7.0 0.00 0.00 0.00 45 1008.9
20260509200147 89 175 0.0 8.0 0.00 0.00 0.00 47 1008.9
20260509195712 89 150 5.0 8.0 0.00 0.00 0.00 47 1009.0
20260509195223 89 199 4.0 8.0 0.00 0.00 0.00 46 1009.0
20260509194728 89 165 5.0 8.0 0.00 0.00 0.00 48 1009.1
20260509194144 89 169 4.0 7.0 0.00 0.00 0.00 49 1009.3
20260509193710 88 160 3.0 7.0 0.00 0.00 0.00 51 1009.4
20260509193200 88 201 1.0 7.0 0.00 0.00 0.00 51 1009.6
20260509192727 87 222 4.0 7.0 0.00 0.00 0.00 51 1009.7
20260509192132 87 269 1.0 4.0 0.00 0.00 0.00 53 1009.8
20260509191137 86 269 2.0 6.0 0.00 0.00 0.00 53 1010.0
20260509190711 86 254 3.0 6.0 0.00 0.00 0.00 52 1010.1
20260509190116 86 28 2.0 6.0 0.00 0.00 0.00 52 1010.2
20260509185650 87 355 4.0 6.0 0.00 0.00 0.00 52 1010.2
20260509185116 87 360 1.0 8.0 0.00 0.00 0.00 53 1010.2
20260509184141 86 169 4.0 10.0 0.00 0.00 0.00 57 1010.2
20260509183707 86 223 3.0 10.0 0.00 0.00 0.00 55 1010.2
20260509183138 85 263 3.0 7.0 0.00 0.00 0.00 55 1010.2
20260509182706 85 246 2.0 6.0 0.00 0.00 0.00 56 1010.3
20260509182136 85 184 2.0 6.0 0.00 0.00 0.00 57 1010.3
20260509181702 84 149 0.0 7.0 0.00 0.00 0.00 58 1010.5
20260509181134 84 272 4.0 7.0 0.00 0.00 0.00 59 1010.6
20260509180700 84 280 2.0 5.0 0.00 0.00 0.00 59 1010.7
20260509180116 84 229 1.0 8.0 0.00 0.00 0.00 59 1010.7
20260509175642 84 242 3.0 8.0 0.00 0.00 0.00 59 1010.7
20260509175154 84 360 2.0 5.0 0.00 0.00 0.00 59 1010.7
20260509174658 84 257 1.0 5.0 0.00 0.00 0.00 64 1010.8
20260509174123 83 294 2.0 5.0 0.00 0.00 0.00 61 1010.8
20260509173658 83 259 1.0 4.0 0.00 0.00 0.00 66 1011.0
20260509173122 82 90 2.0 4.0 0.00 0.00 0.00 65 1011.1
20260509172654 81 107 0.0 4.0 0.00 0.00 0.00 67 1011.1
20260509172117 81 187 0.0 6.0 0.00 0.00 0.00 69 1011.2
20260509171651 80 91 3.0 6.0 0.00 0.00 0.00 69 1011.2
20260509171118 80 317 3.0 7.0 0.00 0.00 0.00 70 1011.1
20260509170651 80 18 3.0 7.0 0.00 0.00 0.00 72 1011.2
20260509170116 80 261 1.0 6.0 0.00 0.00 0.00 72 1011.1
20260509165641 79 334 2.0 6.0 0.00 0.00 0.00 74 1011.2
20260509165115 79 185 1.0 5.0 0.00 0.00 0.00 75 1011.2
20260509164641 78 45 2.0 5.0 0.00 0.00 0.00 77 1011.3
20260509164114 78 338 1.0 5.0 0.00 0.00 0.00 79 1011.4
20260509163639 77 297 1.0 5.0 0.00 0.00 0.00 80 1011.4
20260509163117 77 325 1.0 5.0 0.00 0.00 0.00 82 1011.4
20260509162622 77 271 1.0 5.0 0.00 0.00 0.00 83 1011.5
20260509162156 76 348 3.0 5.0 0.00 0.00 0.00 84 1011.7
20260509161721 76 271 2.0 5.0 0.00 0.00 0.00 86 1011.7
20260509161129 75 355 1.0 5.0 0.00 0.00 0.00 87 1011.7
20260509160654 75 5 3.0 5.0 0.00 0.00 0.00 88 1011.7
20260509160119 75 342 2.0 5.0 0.00 0.00 0.00 88 1011.8
20260509155653 75 13 1.0 6.0 0.00 0.00 0.00 89 1011.8
20260509155118 75 344 3.0 6.0 0.00 0.00 0.00 90 1011.8
20260509154652 75 320 3.0 5.0 0.00 0.00 0.00 91 1011.7
20260509154117 75 211 1.0 2.0 0.00 0.00 0.00 92 1011.6
20260509153651 75 195 0.0 5.0 0.00 0.00 0.00 92 1011.6
20260509153121 75 195 1.0 7.0 0.00 0.00 0.00 94 1011.6
20260509152654 74 141 1.0 7.0 0.00 0.00 0.00 94 1011.5
20260509152219 74 225 4.0 9.0 0.00 0.00 0.00 95 1011.6
20260509151622 74 170 4.0 10.0 0.00 0.00 0.00 95 1011.4
20260509151155 73 173 5.0 10.0 0.00 0.00 0.00 95 1011.3
20260509150617 73 143 7.0 10.0 0.00 0.00 0.00 95 1011.5
20260509150148 73 178 5.0 9.0 0.00 0.00 0.00 95 1011.7
20260509145613 73 167 5.0 9.0 0.00 0.00 0.00 95 1011.9
20260509145121 72 166 5.0 7.0 0.00 0.00 0.00 95 1011.8
20260509144647 73 161 1.0 5.0 0.00 0.00 0.00 95 1012.0
20260509144211 72 161 2.0 5.0 0.00 0.00 0.00 95 1012.1
20260509143627 73 193 1.0 5.0 0.00 0.00 0.00 96 1012.0
20260509143153 73 140 3.0 5.0 0.00 0.00 0.00 96 1011.9
20260509142705 72 67 1.0 6.0 0.00 0.00 0.00 96 1011.6
20260509142130 72 67 2.0 6.0 0.00 0.00 0.00 96 1011.8
20260509141705 72 53 4.0 6.0 0.00 0.00 0.00 96 1011.6
20260509141131 72 317 2.0 6.0 0.00 0.00 0.00 96 1011.4
20260509140705 72 336 5.0 6.0 0.00 0.00 0.00 96 1011.4
20260509140229 72 29 2.0 5.0 0.00 0.00 0.00 96 1011.3
20260509135639 72 337 3.0 5.0 0.00 0.00 0.00 96 1011.2
20260509135204 72 24 2.0 5.0 0.00 0.00 0.00 96 1011.1
20260509134633 72 5 3.0 5.0 0.00 0.00 0.00 96 1011.1
20260509134204 72 347 1.0 4.0 0.00 0.00 0.00 96 1011.2
20260509133631 72 347 2.0 3.0 0.00 0.00 0.00 96 1011.3